[[{"header":{"parameterUnit":"m.s-1","parameterCategory":1,"la1":30.2991,"la2":30.254,"lo1":-89.0895,"lo2":-89.0444,"dy":0.0017,"dx":0.0017,"nx":28,"ny":28,"refTime":"2024-03-26T03:00:00:Z","depth":0,"parameterNumber":2,"parameterNumberName":"U-component_of_WINDS"},"data":[0,0,0,0,0,0,0,0,0,0,0,0,0,0,0,0,0,0,0,0,0,0,0,0,0,0,0,0,0,0,0,0,0,0,0,0,0,0,0,0,0,0,0,0,0,0,0,0,0,0,0,0,0,0,0,0,0,0,1.2497,1.2497,0,1.2489,1.2489,1.2489,1.2455,1.2454,1.2454,1.2453,1.2446,1.2446,1.2447,0,0,0,0,0,0,0,0,0,0,0,0,0,1.2482,1.2483,1.2497,1.2497,1.2497,1.2489,1.2489,1.2489,1.2455,1.2454,1.2453,1.2452,1.2445,1.2446,1.2447,0,0,0,0,0,0,0,0,0,0,0,0,0,1.2483,1.2483,1.2497,1.2479,1.2477,1.2489,1.2489,1.2489,1.2456,1.2454,1.2453,1.2452,1.2445,1.2446,1.2447,1.2476,0,0,1.2449,1.245,0,0,0,0,0,0,0,0,1.2483,1.2484,1.2482,1.248,1.2478,1.2472,1.2481,1.2485,1.2456,1.2464,1.2453,1.2451,1.2455,1.2455,1.2456,1.2475,1.2475,1.2449,1.245,1.245,1.245,0,0,0,0,0,0,0,1.2483,1.2484,1.2494,1.2482,1.248,1.2471,1.247,1.2482,1.2466,1.2463,1.246,1.246,1.2454,1.2456,1.2456,1.2475,1.2449,1.245,1.2451,1.2451,1.2518,1.252,0,0,0,0,0,0,1.2486,1.2484,1.2494,1.2494,1.2478,1.2473,1.2471,1.2475,1.2466,1.2464,1.2461,1.2458,1.2455,1.2455,1.2456,1.2489,1.245,1.2451,1.2451,1.2517,1.2519,1.252,0,0,0,0,0,0,1.2485,1.2487,1.2494,1.2488,1.2488,1.2474,1.2479,1.2476,1.2477,1.2465,1.2462,1.2466,1.2454,1.2455,1.2471,1.2489,1.2451,1.2452,1.2516,1.2518,1.2519,1.2557,0,0,0,0,0,0,1.2485,1.2487,1.2497,1.2489,1.2489,1.251,1.248,1.2476,1.2479,1.2475,1.2468,1.2466,1.2453,1.247,1.2472,1.2489,1.2453,1.2514,1.2516,1.2519,1.2554,1.256,1.2565,0,0,0,0,0,1.2485,1.2508,1.2498,1.25,1.2502,1.2511,1.2511,1.2496,1.248,1.2491,1.2483,1.2466,1.2487,1.2472,1.2474,1.2492,1.2513,1.2516,1.2519,1.2552,1.2559,1.2565,0,0,0,0,0,0,1.2519,1.2507,1.2495,1.2517,1.2515,1.2505,1.2518,1.2504,1.2507,1.2503,1.2485,1.2483,1.2503,1.2499,1.2483,1.252,1.2497,1.25,1.2521,1.2528,1.2533,1.2534,1.2453,0,0,0,0,0,1.253,1.2538,1.2526,1.2546,1.2546,1.2532,1.2536,1.2524,1.2522,1.2521,1.2514,1.2513,1.2519,1.2523,1.2528,1.2554,1.2552,1.2567,1.2572,1.2577,1.258,1.2593,1.26,1.253,1.253,1.253,0,0,1.255,1.2545,1.2551,1.2553,1.255,1.256,1.2532,1.2543,1.2549,1.2523,1.2538,1.2533,1.253,1.2552,1.2561,1.2549,1.2599,1.258,1.2584,1.2585,1.2597,1.2604,1.261,1.2532,1.2531,1.2531,0,0,1.2593,1.259,1.2606,1.2604,1.2601,1.2592,1.2596,1.2588,1.2584,1.2599,1.258,1.2588,1.2598,1.2597,1.2598,1.2642,1.2627,1.2644,1.2672,1.2686,1.2691,1.2696,1.2712,1.2718,1.2647,1.2648,1.2648,0,1.262,1.2632,1.2616,1.2629,1.263,1.2607,1.2624,1.2623,1.2621,1.2623,1.261,1.2624,1.262,1.2641,1.2652,1.2654,1.2658,1.2645,1.2692,1.2697,1.2701,1.2716,1.2722,1.265,1.2649,1.2649,1.2649,0,1.2665,1.2675,1.2688,1.2688,1.2691,1.2706,1.2692,1.2698,1.2686,1.2679,1.2695,1.269,1.2694,1.2698,1.2687,1.2718,1.2711,1.2695,1.2672,1.271,1.2724,1.2729,1.2653,1.2652,1.2651,1.2651,0,0,1.2729,1.272,1.2725,1.2725,1.272,1.2727,1.2741,1.2745,1.275,1.275,1.2761,1.2772,1.2757,1.2758,1.2747,1.2759,1.2795,1.2742,1.2742,1.2752,1.2829,1.284,1.2847,1.2785,1.2786,1.2786,1.2829,0,1.2769,1.2792,1.2779,1.2804,1.2812,1.2791,1.2803,1.2802,1.2796,1.2802,1.2795,1.2803,1.2784,1.2784,1.2795,1.2788,1.281,1.2785,1.2795,1.2796,1.2796,1.2854,1.2866,1.2906,1.2834,1.2835,1.2836,0,1.282,1.2823,1.2849,1.2843,1.2846,1.2857,1.286,1.2867,1.2865,1.2859,1.2861,1.2847,1.2861,1.2839,1.2857,1.2841,1.2844,1.2841,1.2843,1.2843,1.2818,1.2856,1.2919,1.2925,1.2844,1.2843,1.2843,0,1.2864,1.2874,1.2891,1.2891,1.2885,1.2893,1.2891,1.2888,1.2892,1.2894,1.2896,1.2901,1.2903,1.2907,1.2895,1.2879,1.2915,1.2892,1.2911,1.2912,1.2919,1.2919,1.2984,1.2922,1.2922,1.2922,1.2922,0,1.291,1.2927,1.291,1.2921,1.2939,1.2924,1.2942,1.2938,1.2936,1.2945,1.2927,1.2937,1.292,1.2928,1.2919,1.2936,1.2937,1.2933,1.293,1.2935,1.2935,1.2936,1.2933,1.2924,1.2923,1.2923,1.2923,0,1.2962,1.2951,1.2968,1.2961,1.296,1.2974,1.2968,1.2978,1.297,1.2983,1.2985,1.2974,1.2982,1.297,1.2978,1.2971,1.2995,1.2988,1.2995,1.2993,1.3014,1.3012,1.3081,1.309,1.3023,1.3024,1.3024,0,1.2992,1.3005,1.2999,1.3004,1.3003,1.3012,1.3015,1.3001,1.3006,1.3006,1.3015,1.3022,1.3027,1.3041,1.3034,1.304,1.3033,1.3057,1.3033,1.3037,1.3033,1.3032,1.3033,1.3061,1.3062,1.3063,1.3063,0,1.3047,1.3042,1.3048,1.3052,1.3057,1.306,1.3061,1.3067,1.3052,1.3058,1.3067,1.307,1.3078,1.3085,1.3089,1.3087,1.3073,1.3071,1.3076,1.308,1.3083,1.3082,1.3008,1.3069,1.3068,1.3068,1.3068,1.3067,1.3089,1.3099,1.3097,1.3105,1.3105,1.3107,1.3116,1.311,1.3117,1.3122,1.3113,1.3124,1.3123,1.3127,1.3126,1.3135,1.3124,1.3131,1.3133,1.3135,1.3138,1.3083,1.3136,1.3135,1.3135,1.3135,1.3135,0,1.3143,1.3141,1.3148,1.3151,1.3157,1.3144,1.3145,1.3151,1.3161,1.3161,1.3166,1.3177,1.3184,1.3177,1.3183,1.3191,1.3185,1.3193,1.3193,1.3192,1.3147,1.3142,1.3199,1.3199,1.3198,1.3198,1.3198,1.3198,1.3172,1.3189,1.3183,1.32,1.3198,1.3209,1.3211,1.3213,1.3213,1.3225,1.3231,1.3227,1.3225,1.323,1.3237,1.3235,1.3238,1.3248,1.3244,1.3202,1.3195,1.319,1.3185,1.3249,1.3249,1.3289,1.3289,1.3289]},{"header":{"parameterUnit":"m.s-1","parameterCategory":1,"la1":30.2991,"la2":30.254,"lo1":-89.0895,"lo2":-89.0444,"dy":0.0017,"dx":0.0017,"nx":28,"ny":28,"refTime":"2024-03-26T03:00:00:Z","depth":0,"parameterNumber":3,"parameterNumberName":"V-component_of_WINDS"},"data":[0,0,0,0,0,0,0,0,0,0,0,0,0,0,0,0,0,0,0,0,0,0,0,0,0,0,0,0,0,0,0,0,0,0,0,0,0,0,0,0,0,0,0,0,0,0,0,0,0,0,0,0,0,0,0,0,0,0,-4.345,-4.3452,0,-4.3624,-4.3626,-4.3628,-4.3603,-4.36,-4.3597,-4.3594,-4.3772,-4.378,-4.3787,0,0,0,0,0,0,0,0,0,0,0,0,0,-4.3098,-4.3105,-4.345,-4.3452,-4.3455,-4.3624,-4.3626,-4.3629,-4.3603,-4.36,-4.3596,-4.3593,-4.377,-4.3779,-4.3788,0,0,0,0,0,0,0,0,0,0,0,0,0,-4.3259,-4.3107,-4.345,-4.3462,-4.3465,-4.3623,-4.3626,-4.3629,-4.3604,-4.36,-4.3595,-4.3591,-4.3767,-4.3778,-4.3789,-4.3946,0,0,-4.3823,-4.3828,0,0,0,0,0,0,0,0,-4.325,-4.3272,-4.3458,-4.3462,-4.3465,-4.3587,-4.3567,-4.3735,-4.3605,-4.3551,-4.3594,-4.3589,-4.3714,-4.373,-4.3772,-4.3954,-4.3962,-4.3824,-4.3831,-4.3836,-4.3839,0,0,0,0,0,0,0,-4.3239,-4.3265,-4.3519,-4.3461,-4.3465,-4.346,-4.3478,-4.3599,-4.3655,-4.3556,-4.3554,-4.3575,-4.3715,-4.3761,-4.3776,-4.3964,-4.3824,-4.3834,-4.3841,-4.3845,-4.4286,-4.4291,0,0,0,0,0,0,-4.3224,-4.3256,-4.3514,-4.3524,-4.3345,-4.347,-4.349,-4.3553,-4.3654,-4.3665,-4.3579,-4.3573,-4.3744,-4.3763,-4.3782,-4.3974,-4.3836,-4.3846,-4.3853,-4.4281,-4.4287,-4.4293,0,0,0,0,0,0,-4.3217,-4.3248,-4.3507,-4.339,-4.3422,-4.348,-4.3551,-4.3558,-4.3604,-4.3671,-4.3681,-4.3615,-4.3741,-4.3766,-4.3906,-4.398,-4.3851,-4.3861,-4.4275,-4.4283,-4.429,-4.4358,0,0,0,0,0,0,-4.3207,-4.3245,-4.3305,-4.3391,-4.3429,-4.3627,-4.3556,-4.3565,-4.3623,-4.3618,-4.3708,-4.3719,-4.374,-4.3889,-4.3917,-4.3993,-4.387,-4.4269,-4.4279,-4.4288,-4.4349,-4.4367,-4.4382,0,0,0,0,0,-4.3194,-4.3317,-4.3308,-4.3339,-4.3504,-4.3631,-4.3653,-4.3675,-4.3629,-4.369,-4.3734,-4.3716,-4.3967,-4.3904,-4.3935,-4.4015,-4.4264,-4.4276,-4.4287,-4.4342,-4.4363,-4.4381,0,0,0,0,0,0,-4.3237,-4.3328,-4.332,-4.3473,-4.3545,-4.3627,-4.3704,-4.3696,-4.3782,-4.3773,-4.3797,-4.3817,-4.3959,-4.4001,-4.3929,-4.4173,-4.4109,-4.4127,-4.4141,-4.4162,-4.4178,-4.4165,-4.3879,0,0,0,0,0,-4.3265,-4.336,-4.3434,-4.3563,-4.3599,-4.3646,-4.3702,-4.3713,-4.3788,-4.3818,-4.3871,-4.3945,-4.4041,-4.4103,-4.4195,-4.4355,-4.4375,-4.4426,-4.4442,-4.4455,-4.4471,-4.456,-4.4584,-4.433,-4.4329,-4.4329,0,0,-4.3322,-4.3384,-4.3442,-4.3573,-4.363,-4.3729,-4.3671,-4.3778,-4.3852,-4.3834,-4.397,-4.4012,-4.4095,-4.4247,-4.4316,-4.4286,-4.4545,-4.4469,-4.4479,-4.4488,-4.4574,-4.4598,-4.462,-4.4337,-4.4336,-4.4335,0,0,-4.3478,-4.3533,-4.3647,-4.3706,-4.3792,-4.3823,-4.385,-4.3934,-4.3962,-4.4098,-4.4087,-4.4175,-4.4339,-4.44,-4.4453,-4.4633,-4.462,-4.4662,-4.4747,-4.4835,-4.4855,-4.4873,-4.4939,-4.4962,-4.4677,-4.4677,-4.4678,0,-4.3538,-4.3687,-4.3707,-4.3816,-4.3874,-4.3863,-4.3979,-4.4035,-4.4147,-4.4188,-4.4153,-4.436,-4.4415,-4.4581,-4.4626,-4.4668,-4.4701,-4.4652,-4.485,-4.4868,-4.4885,-4.4949,-4.4973,-4.4682,-4.4681,-4.4681,-4.4681,0,-4.3758,-4.3861,-4.3943,-4.4052,-4.412,-4.4232,-4.427,-4.4336,-4.4341,-4.4376,-4.4516,-4.4582,-4.4688,-4.4728,-4.4733,-4.4896,-4.4874,-4.4844,-4.4781,-4.4914,-4.4974,-4.4998,-4.4689,-4.4687,-4.4686,-4.4684,0,0,-4.3945,-4.4065,-4.4095,-4.4146,-4.4241,-4.4322,-4.4434,-4.4538,-4.4595,-4.4673,-4.4768,-4.4908,-4.4881,-4.4941,-4.4953,-4.503,-4.5171,-4.499,-4.4993,-4.5023,-4.5356,-4.5379,-4.5407,-4.5162,-4.5167,-4.5171,-4.5349,0,-4.4111,-4.4309,-4.4332,-4.4509,-4.4605,-4.4597,-4.4694,-4.4764,-4.48,-4.4887,-4.4926,-4.5025,-4.4982,-4.5018,-4.5093,-4.5138,-4.5238,-4.5125,-4.5253,-4.5257,-4.5234,-4.5438,-4.5462,-4.5628,-4.5373,-4.5377,-4.538,0,-4.4332,-4.4417,-4.4604,-4.4688,-4.4729,-4.4817,-4.4915,-4.4998,-4.5077,-4.5098,-4.5165,-4.5168,-4.5285,-4.5216,-4.5378,-4.5301,-4.5354,-4.5384,-4.5391,-4.5405,-4.5327,-4.5459,-4.5681,-4.5706,-4.5416,-4.5413,-4.5411,0,-4.4452,-4.4613,-4.4746,-4.479,-4.489,-4.4953,-4.4997,-4.5072,-4.5134,-4.5219,-4.526,-4.5358,-4.5412,-4.5488,-4.5517,-4.5464,-4.5679,-4.5612,-4.57,-4.57,-4.5747,-4.5744,-4.5982,-4.5779,-4.5778,-4.5778,-4.5777,0,-4.4636,-4.4751,-4.4802,-4.4884,-4.5013,-4.5038,-4.5166,-4.5208,-4.5275,-4.5366,-4.5363,-4.5449,-4.5482,-4.5573,-4.5597,-4.5729,-4.5752,-4.5773,-4.5778,-4.5775,-4.5772,-4.5811,-4.5801,-4.5784,-4.5783,-4.5781,-4.578,0,-4.4793,-4.4831,-4.4976,-4.506,-4.5084,-4.5176,-4.5248,-4.5328,-4.5362,-4.5477,-4.5506,-4.556,-4.5667,-4.5704,-4.5834,-4.585,-4.6004,-4.5998,-4.5977,-4.5979,-4.6066,-4.6058,-4.6339,-4.6378,-4.6147,-4.6149,-4.6151,0,-4.4908,-4.4997,-4.5091,-4.5151,-4.5199,-4.5297,-4.536,-4.5388,-4.5454,-4.5552,-4.5621,-4.5727,-4.5814,-4.5986,-4.6037,-4.6137,-4.6135,-4.6226,-4.615,-4.6144,-4.6139,-4.6134,-4.6144,-4.6241,-4.6244,-4.6245,-4.6247,0,-4.511,-4.5125,-4.5216,-4.5315,-4.5391,-4.547,-4.5546,-4.5596,-4.5635,-4.571,-4.582,-4.5887,-4.602,-4.6127,-4.6229,-4.6276,-4.6269,-4.6271,-4.6297,-4.6294,-4.6279,-4.6291,-4.6018,-4.6264,-4.6263,-4.6261,-4.626,-4.626,-4.5251,-4.533,-4.5409,-4.5511,-4.5572,-4.5644,-4.5724,-4.5769,-4.5861,-4.5972,-4.5983,-4.6102,-4.618,-4.6317,-4.6369,-4.6463,-4.6437,-4.6474,-4.6484,-4.6493,-4.6501,-4.6263,-4.6481,-4.648,-4.648,-4.648,-4.6479,0,-4.5454,-4.5505,-4.5599,-4.5706,-4.5787,-4.5773,-4.5858,-4.5926,-4.6031,-4.6105,-4.6191,-4.6318,-4.6422,-4.6482,-4.6586,-4.665,-4.6649,-4.6676,-4.6673,-4.6684,-4.6517,-4.6485,-4.6675,-4.6675,-4.6675,-4.6675,-4.6675,-4.6675,-4.557,-4.5704,-4.5728,-4.5893,-4.5943,-4.606,-4.6109,-4.6176,-4.6235,-4.6378,-4.6464,-4.6503,-4.6572,-4.6681,-4.6776,-4.6791,-4.683,-4.686,-4.6873,-4.6716,-4.6695,-4.6676,-4.6646,-4.6868,-4.6868,-4.7032,-4.7034,-4.7035]}]]